Location: Calberlah
(52.4230°N, 10.6240°E)
Time: 00:42:03
(UTC+00:00)

ISS - Pass Details

Date: 19 May 2025
Orbit: 415 x 417 km, 51.6° (Epoch: 22 June)

Event Time Altitude Azimuth Distance (km) Brightness Sun altitude
Rises 21:46:10 0° 281° (WNW) 2,362 0.5 -15.1°
Reaches altitude 10° 21:48:29 10° 268° (W) 1,494 -0.7 -15.2°
Maximum altitude 21:51:17 25° 211° (SSW) 886 -2.5 -15.4°
Enters shadow 21:51:22 25° 208° (SSW) 886 -2.5 -15.4°
